Starlink 33782

operational
NORAD ID: 64332 Int'l Des: 2025-124 Owner: SPXS Country: US Constellation: starlink
LEOCIRCULAR

About Starlink 33782

Description loading...

Live Position

Loading 3D Globe...

Upcoming Passes

Altitude History

Altitude vs Time

uPlot chart will show altitude changes over time

Two-Line Element Set

1 64332U 25124R 26094.98745379 .00036481 00000-0 13311-2 0 9998
2 64332 43.0039 333.0779 0005697 227.6339 132.4031 15.27508723 45801
Epoch: Apr 4, 2026 • Age: 15 hours

Current Status

Altitude 486.4 km
Velocity 7.62 km/s
Sub-Earth Point -27.65°S, 127.67°E
Launch Date Jun 10, 2025
Age 0.8 years
Type internet

Technical Details

Classification Payload
Mass 575.00 kg
Dry Mass 530.00 kg
Total Mass 575.00 kg
Length 0.30 m
Diameter 4.10 m
Span 29.00 m
Shape Box + pan
Manufacturer SPXS
Bus Type Starlink V2MO
Phase Status In Orbit
Owner/State SPXS/US

Large Constellations

Loading constellations...